Skip Page Navigation
NASA JPL Caltech
NASA Logo - Jet Propulsion Laboratory + View the NASA Portal
+ Center for Near-Earth Object Studies
JPL Home Earth Solar System Stars & Galaxies Technology
JPL Solar System Dynamics
BODIES ORBITS EPHEMERIDES TOOLS PHYSICAL DATA DISCOVERY FAQ SITE MAP
IMPORTANT: The SSD Announcement email list is now available. Major changes are coming in the near future, including possible hostname and/or URL changes. To be notified of such changes, subscribe to this email list.

Please visit this page for more details.


JPL Small-Body Database Browser
Search: [ help ]  
35178 (1993 TQ27)
Classification: Main-belt Asteroid          SPK-ID: 2035178
Ephemeris | Orbit Diagram | Orbital Elements | Mission Design | Physical Parameters | Discovery Circumstances | Close-Approach Data ]

[ show orbit diagram ]
Orbital Elements at Epoch 2458600.5 (2019-Apr-27.0) TDB
Reference: JPL 24 (heliocentric ecliptic J2000)
 Element Value Uncertainty (1-sigma)   Units 
e .0816931542568331 4.477e-08  
a 3.19097933084969 2.9432e-08 au
q 2.93029816414422 1.4917e-07 au
i 7.402424360107436 6.1648e-06 deg
node 56.32824934787513 3.7699e-05 deg
peri 217.5175510187339 5.3905e-05 deg
M 268.3844632173005 3.9248e-05 deg
tp 2459130.347687591573
(2020-Oct-07.84768759)
0.00022801 TDB
period 2082.017682059648
5.70
2.8805e-05
7.886e-08
d
yr
n .1729091943368454 2.3922e-09 deg/d
Q 3.45166049755516 3.1836e-08 au
  Orbit Determination Parameters
   # obs. used (total)      852  
   data-arc span      13310 days (36.44 yr)  
   first obs. used      1982-11-14  
   last obs. used      2019-04-24  
   planetary ephem.      DE431  
   SB-pert. ephem.      SB431-N16  
   condition code      0  
   norm. resid. RMS      .52981  
   source      ORB  
   producer      Otto Matic  
   solution date      2019-Jul-13 01:45:49  

Additional Information
 Earth MOID = 1.91811 au 
 Jupiter MOID = 1.6296 au 
 T_jup = 3.179 
[ show covariance matrix ]

Ephemeris | Orbit Diagram | Orbital Elements | Mission Design | Physical Parameters | Discovery Circumstances | Close-Approach Data ]

Physical Parameter Table
Parameter Symbol Value Units Sigma Reference Notes
absolute magnitude H 13.7   n/a MPO257111  
diameter diameter 9.816 km 0.168 urn:nasa:pds:neowise_diameters_albedos::2.0[mainbelt] (http://adsabs.harvard.edu/abs/2011ApJ...741...68M)  
geometric albedo albedo 0.067   0.005 urn:nasa:pds:neowise_diameters_albedos::2.0[mainbelt] (http://adsabs.harvard.edu/abs/2011ApJ...741...68M)  

35178 (1993 TQ27)          Discovered 1993-Oct-09 by Elst, E. W. at La Silla
Reference: 20020227/Numbers.arcLast Updated: 2004-04-19

[ show close-approach data ]
Alternate Designations
 1993 TQ27 = 1982 VT4 = 1999 TQ172 
Ephemeris | Orbit Diagram | Orbital Elements | Mission Design | Physical Parameters | Discovery Circumstances | Close-Approach Data ]
ABOUT SSD CREDITS/AWARDS PRIVACY/COPYRIGHT GLOSSARY LINKS
FirstGov 2019-Oct-14 16:56 UT
(server date/time)  
NASA Home Page
Site Manager:   Ryan S. Park
Webmaster  Alan B. Chamberlin